Regional Weather Roundup
Issued by NWS Goodland, KS

Home | Current Version | Previous Version | Graphics & Text | Print | Product List | Glossary On
Versions: 1 2 3 4 5 6 7 8 9 10 11 12 13 14 15 16 17 18 19 20 21 22 23 24 25 26 27 28 29 30 31 32 33 34 35 36 37 38 39 40 41 42 43 44 45 46 47 48 49 50
000
ASUS43 KGLD 280008
RWRGLD

GOODLAND FORECAST AREA HOURLY WEATHER ROUNDUP
NATIONAL WEATHER SERVICE GOODLAND KS
500 PM MST FRI FEB 27 2015

...OFFICIAL OBSERVATIONS...

CITY           SKY/WX    TMP DP  RH WIND       PRES   REMARKS
GOODLAND KS    FLURRIES  14   8  77 S21G26    30.15S WCI  -4
HILL CITY KS   CLOUDY    18   6  59 S13       30.34F WCI   5
IMPERIAL NEB     N/A     18   6  59 S17G28    30.17S WCI   3
MCCOOK NEB     CLOUDY    22   6  50 S15       30.27S WCI   9
AKRON CO       LGT SNOW  13   8  81 S20G26    30.01R WCI  -5
BURLINGTON CO  LGT SNOW  12   6  77 S21       30.09S WCI  -7
LIMON CO       LGT SNOW   9   5  84 SE20      29.95S FOG     WCI -10
$$

...UNOFFICIAL OBSERVATIONS...

CITY           SKY/WX    TMP DP  RH WIND       PRES   REMARKS
COLBY KS       CLOUDY    18  10  73 S13       30.23S WCI   4
GOVE KS          N/A     16  32 100 MISG        N/A
LENORA KS        N/A     17  32 100 S14         N/A  WCI   3
NORTON KS      CLOUDY    19   1  45 S13       30.31R WCI   7
SHARON SPRINGS   N/A     14  10  85 S17G26      N/A  WCI  -3
TRIBUNE KS     CLOUDY    14  10  85 SE16      30.18F WCI  -2
KIT CARSON CO    N/A     11   7  83 MISG        N/A
YUMA CO          N/A     14   6  70 SE9G25      N/A
$$



USA.gov is the U.S. government's official web portal to all federal, state and local government web resources and services.